| time (UTC) | temp F | wind direction | speed MPH | gust MPH | rain 1hr in | rain 24hr in | rain mn in | humidity % | barometer mb |
| 20260507151351 | 60 | 296 | 4.0 | 7.0 | 0.00 | 0.02 | 0.00 | 48 | 1010.4 |
| 20260507150851 | 60 | 329 | 2.0 | 5.0 | 0.00 | 0.02 | 0.00 | 50 | 1010.6 |
| 20260507150351 | 59 | 330 | 2.0 | 4.0 | 0.00 | 0.02 | 0.00 | 53 | 1010.7 |
| 20260507145859 | 58 | 330 | 2.0 | 5.0 | 0.00 | 0.02 | 0.00 | 53 | 1011.0 |
| 20260507145852 | 59 | 293 | 1.0 | 3.0 | 0.00 | 0.02 | 0.00 | 52 | 1010.9 |
| 20260507145352 | 58 | 159 | 0.0 | 5.0 | 0.00 | 0.02 | 0.00 | 55 | 1010.8 |
| 20260507144351 | 58 | 303 | 2.0 | 4.0 | 0.00 | 0.02 | 0.00 | 54 | 1011.1 |
| 20260507143850 | 57 | 300 | 0.0 | 3.0 | 0.00 | 0.02 | 0.00 | 57 | 1011.2 |
| 20260507143351 | 57 | 329 | 1.0 | 3.0 | 0.00 | 0.02 | 0.00 | 54 | 1011.2 |
| 20260507142851 | 56 | 327 | 0.0 | 3.0 | 0.00 | 0.02 | 0.00 | 56 | 1011.3 |
| 20260507142355 | 56 | 343 | 0.0 | 2.0 | 0.00 | 0.02 | 0.00 | 58 | 1011.5 |
| 20260507142350 | 56 | 293 | 0.0 | 3.0 | 0.00 | 0.02 | 0.00 | 56 | 1011.2 |
| 20260507141349 | 56 | 233 | 0.0 | 2.0 | 0.00 | 0.02 | 0.00 | 56 | 1011.5 |
| 20260507140851 | 55 | 330 | 1.0 | 2.0 | 0.00 | 0.02 | 0.00 | 55 | 1011.5 |
| 20260507140349 | 55 | 326 | 1.0 | 2.0 | 0.00 | 0.02 | 0.00 | 55 | 1011.6 |
| 20260507135850 | 55 | 334 | 0.0 | 2.0 | 0.00 | 0.02 | 0.00 | 54 | 1011.7 |
| 20260507135350 | 55 | 303 | 0.0 | 3.0 | 0.00 | 0.02 | 0.00 | 56 | 1011.7 |
| 20260507134855 | 55 | 313 | 0.0 | 5.0 | 0.00 | 0.02 | 0.00 | 56 | 1011.8 |
| 20260507134850 | 55 | 336 | 0.0 | 4.0 | 0.00 | 0.02 | 0.00 | 56 | 1011.7 |
| 20260507133851 | 55 | 338 | 2.0 | 5.0 | 0.00 | 0.02 | 0.00 | 56 | 1011.8 |
| 20260507133349 | 55 | 324 | 1.0 | 3.0 | 0.00 | 0.02 | 0.00 | 57 | 1011.8 |
| 20260507132848 | 54 | 326 | 1.0 | 3.0 | 0.00 | 0.02 | 0.00 | 57 | 1011.9 |
| 20260507132349 | 54 | 327 | 0.0 | 5.0 | 0.00 | 0.02 | 0.00 | 57 | 1011.9 |
| 20260507131849 | 54 | 20 | 0.0 | 5.0 | 0.00 | 0.02 | 0.00 | 60 | 1012.0 |
| 20260507131350 | 54 | 255 | 0.0 | 3.0 | 0.00 | 0.02 | 0.00 | 58 | 1011.9 |
| 20260507130853 | 54 | 245 | 0.0 | 4.0 | 0.00 | 0.02 | 0.00 | 59 | 1012.0 |
| 20260507130848 | 54 | 312 | 1.0 | 4.0 | 0.00 | 0.02 | 0.00 | 58 | 1011.9 |
| 20260507125853 | 54 | 358 | 0.0 | 5.0 | 0.00 | 0.02 | 0.00 | 60 | 1012.1 |
| 20260507125848 | 54 | 345 | 0.0 | 4.0 | 0.00 | 0.02 | 0.00 | 59 | 1011.9 |
| 20260507124846 | 54 | 344 | 1.0 | 5.0 | 0.00 | 0.02 | 0.00 | 61 | 1012.1 |
| 20260507124348 | 54 | 330 | 1.0 | 5.0 | 0.00 | 0.02 | 0.00 | 60 | 1012.0 |
| 20260507123855 | 53 | 323 | 2.0 | 4.0 | 0.00 | 0.02 | 0.00 | 61 | 1011.7 |
| 20260507123848 | 54 | 330 | 2.0 | 5.0 | 0.00 | 0.02 | 0.00 | 61 | 1011.9 |
| 20260507122848 | 53 | 329 | 1.0 | 4.0 | 0.00 | 0.02 | 0.00 | 62 | 1011.7 |
| 20260507122346 | 53 | 316 | 0.0 | 3.0 | 0.00 | 0.02 | 0.00 | 64 | 1011.7 |
| 20260507121847 | 53 | 345 | 0.0 | 3.0 | 0.00 | 0.02 | 0.00 | 63 | 1011.8 |
| 20260507121348 | 53 | 327 | 1.0 | 3.0 | 0.00 | 0.02 | 0.00 | 65 | 1011.8 |
| 20260507120852 | 53 | 344 | 1.0 | 4.0 | 0.00 | 0.02 | 0.00 | 66 | 1011.5 |
| 20260507120846 | 53 | 334 | 1.0 | 4.0 | 0.00 | 0.02 | 0.00 | 64 | 1011.6 |
| 20260507115846 | 53 | 333 | 1.0 | 3.0 | 0.00 | 0.02 | 0.00 | 67 | 1011.4 |
| 20260507115347 | 53 | 344 | 0.0 | 3.0 | 0.00 | 0.02 | 0.00 | 67 | 1011.5 |
| 20260507114845 | 53 | 338 | 0.0 | 1.0 | 0.00 | 0.02 | 0.00 | 68 | 1011.5 |
| 20260507114347 | 53 | 334 | 0.0 | 2.0 | 0.00 | 0.02 | 0.00 | 68 | 1011.4 |
| 20260507113855 | 53 | 241 | 0.0 | 1.0 | 0.00 | 0.02 | 0.00 | 69 | 1011.5 |
| 20260507113846 | 53 | 344 | 0.0 | 2.0 | 0.00 | 0.02 | 0.00 | 68 | 1011.4 |
| 20260507113348 | 53 | 317 | 0.0 | 2.0 | 0.00 | 0.02 | 0.00 | 69 | 1011.3 |
| 20260507112347 | 53 | 337 | 1.0 | 1.0 | 0.00 | 0.02 | 0.00 | 75 | 1011.4 |
| 20260507111847 | 0 | 0.0 | 0.0 | 0.00 | 0.02 | 0.00 | 1011.5 | ||
| 20260507111346 | 0 | 0.0 | 0.0 | 0.00 | 0.02 | 0.00 | 1011.5 | ||
| 20260507110846 | 0 | 0.0 | 0.0 | 0.00 | 0.02 | 0.00 | 1011.5 | ||
| 20260507110348 | 0 | 0.0 | 0.0 | 0.00 | 0.02 | 0.00 | 1011.4 | ||
| 20260507110344 | 0 | 0.0 | 0.0 | 0.00 | 0.02 | 0.00 | 1011.5 | ||
| 20260507105951 | 0 | 0.0 | 0.0 | 0.00 | 0.02 | 0.00 | 1011.4 | ||
| 20260507104841 | 0 | 0.0 | 0.0 | 0.00 | 0.02 | 0.00 | 1011.3 | ||
| 20260507104340 | 0 | 0.0 | 0.0 | 0.00 | 0.02 | 0.00 | 1011.2 | ||
| 20260507103839 | 0 | 0.0 | 0.0 | 0.00 | 0.02 | 0.00 | 1011.0 | ||
| 20260507103337 | 0 | 0.0 | 0.0 | 0.00 | 0.02 | 0.00 | 1010.8 | ||
| 20260507102838 | 0 | 0.0 | 0.0 | 0.00 | 0.02 | 0.00 | 1010.9 | ||
| 20260507102336 | 0 | 0.0 | 0.0 | 0.00 | 0.02 | 0.00 | 1011.0 | ||
| 20260507101836 | 0 | 0.0 | 0.0 | 0.00 | 0.02 | 0.00 | 1010.8 | ||
| 20260507101334 | 0 | 0.0 | 0.0 | 0.00 | 0.02 | 0.00 | 1010.7 | ||
| 20260507100838 | 0 | 0.0 | 0.0 | 0.00 | 0.02 | 0.00 | 1010.6 | ||
| 20260507100834 | 0 | 0.0 | 0.0 | 0.00 | 0.02 | 0.00 | 1010.8 | ||
| 20260507095836 | 0 | 0.0 | 0.0 | 0.00 | 0.02 | 0.00 | 1010.6 | ||
| 20260507095832 | 0 | 0.0 | 0.0 | 0.00 | 0.02 | 0.00 | 1010.8 | ||
| 20260507095436 | 0 | 0.0 | 0.0 | 0.00 | 0.02 | 0.00 | 1010.3 | ||
| 20260507094332 | 0 | 0.0 | 0.0 | 0.00 | 0.02 | 0.00 | 1010.3 | ||
| 20260507094329 | 0 | 0.0 | 0.0 | 0.00 | 0.02 | 0.00 | 1010.4 | ||
| 20260507093326 | 0 | 0.0 | 0.0 | 0.00 | 0.02 | 0.00 | 1010.4 | ||
| 20260507092830 | 0 | 0.0 | 0.0 | 0.00 | 0.02 | 0.00 | 1010.3 | ||
| 20260507092826 | 0 | 0.0 | 0.0 | 0.00 | 0.02 | 0.00 | 1010.3 | ||
| 20260507091823 | 0 | 0.0 | 0.0 | 0.00 | 0.02 | 0.00 | 1010.5 | ||
| 20260507091323 | 0 | 0.0 | 0.0 | 0.00 | 0.02 | 0.00 | 1010.4 | ||
| 20260507090823 | 0 | 0.0 | 0.0 | 0.00 | 0.02 | 0.00 | 1010.4 | ||
| 20260507090326 | 0 | 0.0 | 0.0 | 0.00 | 0.02 | 0.00 | 1010.3 | ||
| 20260507090322 | 0 | 0.0 | 0.0 | 0.00 | 0.02 | 0.00 | 1010.3 | ||
| 20260507085927 | 0 | 0.0 | 0.0 | 0.00 | 0.02 | 0.00 | 1010.4 | ||
| 20260507085426 | 0 | 0.0 | 0.0 | 0.00 | 0.02 | 0.00 | 1010.4 | ||
| 20260507084318 | 0 | 0.0 | 0.0 | 0.00 | 0.02 | 0.00 | 1010.4 | ||
| 20260507083818 | 0 | 0.0 | 3.0 | 0.00 | 0.02 | 0.00 | 1010.2 | ||
| 20260507083320 | 55 | 348 | 0.0 | 5.0 | 0.00 | 0.02 | 0.00 | 76 | 1010.3 |
| 20260507083316 | 61 | 337 | 0.0 | 3.0 | 0.00 | 0.02 | 0.00 | 75 | 1010.3 |
| 20260507082814 | 55 | 316 | 0.0 | 4.0 | 0.00 | 0.02 | 0.00 | 76 | 1010.3 |
| 20260507082432 | 55 | 337 | 1.0 | 5.0 | 0.00 | 0.02 | 0.00 | 75 | 1010.2 |
| 20260507081314 | 55 | 331 | 2.0 | 5.0 | 0.00 | 0.02 | 0.00 | 75 | 1010.1 |
| 20260507080813 | 55 | 341 | 1.0 | 5.0 | 0.00 | 0.02 | 0.00 | 78 | 1009.9 |
| 20260507080315 | 55 | 296 | 2.0 | 4.0 | 0.00 | 0.02 | 0.00 | 79 | 1009.8 |
| 20260507075812 | 55 | 334 | 0.0 | 5.0 | 0.00 | 0.02 | 0.00 | 80 | 1009.7 |
| 20260507075314 | 55 | 330 | 1.0 | 5.0 | 0.00 | 0.02 | 0.00 | 80 | 1009.6 |
| 20260507074811 | 56 | 331 | 1.0 | 3.0 | 0.00 | 0.02 | 0.00 | 80 | 1009.7 |
| 20260507074314 | 56 | 314 | 0.0 | 3.0 | 0.00 | 0.02 | 0.00 | 80 | 1009.6 |
| 20260507073813 | 56 | 326 | 1.0 | 3.0 | 0.00 | 0.02 | 0.00 | 80 | 1009.6 |
| 20260507073314 | 56 | 331 | 0.0 | 2.0 | 0.00 | 0.02 | 0.00 | 80 | 1009.6 |
| 20260507072812 | 56 | 317 | 0.0 | 3.0 | 0.00 | 0.02 | 0.00 | 80 | 1009.7 |
| 20260507072317 | 56 | 353 | 1.0 | 3.0 | 0.00 | 0.02 | 0.00 | 80 | 1009.6 |
| 20260507072312 | 56 | 330 | 1.0 | 3.0 | 0.00 | 0.02 | 0.00 | 80 | 1009.3 |
| 20260507071317 | 56 | 355 | 1.0 | 4.0 | 0.00 | 0.02 | 0.00 | 79 | 1009.6 |
| 20260507071311 | 56 | 336 | 0.0 | 5.0 | 0.00 | 0.02 | 0.00 | 79 | 1009.6 |
| 20260507070811 | 56 | 323 | 1.0 | 5.0 | 0.00 | 0.02 | 0.00 | 79 | 1009.6 |
| 20260507065817 | 56 | 337 | 0.0 | 3.0 | 0.00 | 0.02 | 0.00 | 79 | 1009.7 |
| 20260507065812 | 56 | 331 | 2.0 | 3.0 | 0.00 | 0.02 | 0.00 | 79 | 1009.6 |
| 20260507064811 | 56 | 309 | 1.0 | 4.0 | 0.00 | 0.02 | 0.00 | 79 | 1009.8 |
| 20260507064312 | 56 | 345 | 2.0 | 4.0 | 0.00 | 0.02 | 0.00 | 79 | 1009.9 |
| 20260507063810 | 56 | 344 | 1.0 | 3.0 | 0.00 | 0.02 | 0.00 | 79 | 1010.0 |
| 20260507063312 | 56 | 321 | 0.0 | 4.0 | 0.00 | 0.02 | 0.00 | 80 | 1010.0 |
| 20260507062810 | 56 | 309 | 0.0 | 4.0 | 0.00 | 0.02 | 0.00 | 80 | 1010.1 |
| 20260507062311 | 56 | 248 | 0.0 | 2.0 | 0.00 | 0.02 | 0.00 | 80 | 1010.1 |
| 20260507061810 | 56 | 336 | 1.0 | 3.0 | 0.00 | 0.02 | 0.00 | 79 | 1010.2 |
| 20260507061310 | 56 | 258 | 0.0 | 3.0 | 0.00 | 0.02 | 0.00 | 79 | 1010.1 |
| 20260507060811 | 56 | 306 | 1.0 | 3.0 | 0.00 | 0.02 | 0.00 | 78 | 1010.0 |
| 20260507060316 | 57 | 326 | 1.0 | 5.0 | 0.00 | 0.02 | 0.00 | 78 | 1010.1 |
| 20260507060311 | 56 | 289 | 0.0 | 5.0 | 0.00 | 0.02 | 0.00 | 78 | 1010.0 |
| 20260507055311 | 57 | 330 | 0.0 | 4.0 | 0.00 | 0.02 | 0.00 | 78 | 1010.1 |
| 20260507054811 | 57 | 262 | 0.0 | 5.0 | 0.00 | 0.02 | 0.00 | 77 | 1010.0 |
| 20260507054314 | 57 | 319 | 0.0 | 3.0 | 0.00 | 0.02 | 0.00 | 78 | 1009.7 |
| 20260507054310 | 57 | 324 | 1.0 | 5.0 | 0.00 | 0.02 | 0.00 | 78 | 1009.8 |
| 20260507053311 | 57 | 300 | 1.0 | 5.0 | 0.00 | 0.02 | 0.00 | 78 | 1009.7 |
| 20260507052812 | 57 | 340 | 0.0 | 5.0 | 0.00 | 0.02 | 0.00 | 77 | 1009.8 |
| 20260507052311 | 57 | 329 | 0.0 | 3.0 | 0.00 | 0.02 | 0.00 | 77 | 1009.7 |
| 20260507051811 | 57 | 309 | 0.0 | 3.0 | 0.00 | 0.02 | 0.00 | 79 | 1010.0 |
| 20260507051308 | 57 | 319 | 0.0 | 3.0 | 0.00 | 0.02 | 0.00 | 79 | 1009.9 |
| 20260507050809 | 57 | 338 | 1.0 | 4.0 | 0.00 | 0.02 | 0.00 | 79 | 1009.8 |
| 20260507050308 | 57 | 344 | 1.0 | 4.0 | 0.00 | 0.02 | 0.00 | 80 | 1010.1 |
| 20260507045808 | 57 | 324 | 0.0 | 6.0 | 0.00 | 0.02 | 0.00 | 80 | 1010.1 |
| 20260507045309 | 57 | 358 | 0.0 | 6.0 | 0.00 | 0.02 | 0.00 | 80 | 1010.0 |
| 20260507044809 | 57 | 266 | 1.0 | 4.0 | 0.00 | 0.02 | 0.00 | 80 | 1009.9 |
| 20260507044309 | 57 | 321 | 1.0 | 4.0 | 0.00 | 0.02 | 0.00 | 80 | 1009.7 |
| 20260507043808 | 57 | 343 | 0.0 | 4.0 | 0.00 | 0.02 | 0.00 | 80 | 1009.3 |
| 20260507043308 | 58 | 312 | 2.0 | 9.0 | 0.00 | 0.02 | 0.00 | 80 | 1009.8 |
| 20260507042808 | 58 | 331 | 3.0 | 9.0 | 0.00 | 0.02 | 0.00 | 80 | 1010.1 |
| 20260507042307 | 58 | 327 | 2.0 | 5.0 | 0.00 | 0.02 | 0.00 | 81 | 1010.0 |
| 20260507041809 | 58 | 319 | 0.0 | 6.0 | 0.00 | 0.02 | 0.00 | 82 | 1010.1 |
| 20260507041309 | 58 | 326 | 2.0 | 7.0 | 0.00 | 0.02 | 0.00 | 81 | 1009.9 |
| 20260507040808 | 58 | 334 | 1.0 | 7.0 | 0.00 | 0.02 | 0.00 | 81 | 1009.2 |
| 20260507040309 | 58 | 264 | 1.0 | 7.0 | 0.00 | 0.02 | 0.00 | 81 | 1009.4 |
| 20260507035807 | 58 | 351 | 3.0 | 7.0 | 0.00 | 0.02 | 0.17 | 81 | 1009.4 |
| 20260507035307 | 59 | 336 | 2.0 | 5.0 | 0.00 | 0.02 | 0.17 | 81 | 1009.7 |
| 20260507034813 | 59 | 336 | 1.0 | 9.0 | 0.00 | 0.02 | 0.17 | 81 | 1009.4 |
| 20260507034807 | 59 | 337 | 1.0 | 9.0 | 0.00 | 0.02 | 0.17 | 81 | 1009.4 |
| 20260507033807 | 59 | 336 | 1.0 | 7.0 | 0.00 | 0.02 | 0.17 | 80 | 1009.2 |
| 20260507033307 | 59 | 344 | 3.0 | 9.0 | 0.00 | 0.02 | 0.17 | 80 | 1009.2 |
| 20260507032808 | 59 | 337 | 3.0 | 9.0 | 0.00 | 0.02 | 0.17 | 80 | 1009.3 |
| 20260507032308 | 60 | 316 | 2.0 | 9.0 | 0.00 | 0.02 | 0.17 | 81 | 1009.2 |
| 20260507031807 | 60 | 334 | 3.0 | 9.0 | 0.00 | 0.02 | 0.17 | 80 | 1009.4 |
| 20260507031311 | 60 | 331 | 1.0 | 6.0 | 0.00 | 0.02 | 0.17 | 80 | 1009.2 |
| 20260507031307 | 60 | 334 | 2.0 | 5.0 | 0.00 | 0.02 | 0.17 | 80 | 1009.3 |
| 20260507030307 | 60 | 320 | 2.0 | 6.0 | 0.00 | 0.02 | 0.17 | 80 | 1009.3 |
| 20260507025806 | 60 | 344 | 2.0 | 4.0 | 0.00 | 0.02 | 0.17 | 80 | 1009.0 |
| 20260507025306 | 60 | 331 | 1.0 | 9.0 | 0.00 | 0.02 | 0.17 | 80 | 1008.8 |
| 20260507024807 | 60 | 336 | 2.0 | 9.0 | 0.00 | 0.02 | 0.17 | 81 | 1008.8 |
| 20260507024306 | 60 | 337 | 2.0 | 6.0 | 0.00 | 0.02 | 0.17 | 81 | 1008.9 |
| 20260507023806 | 61 | 327 | 2.0 | 6.0 | 0.00 | 0.02 | 0.17 | 81 | 1008.9 |
| 20260507023305 | 61 | 329 | 1.0 | 4.0 | 0.00 | 0.02 | 0.17 | 82 | 1008.8 |
| 20260507022805 | 61 | 336 | 2.0 | 6.0 | 0.00 | 0.02 | 0.17 | 82 | 1008.8 |
| 20260507022310 | 61 | 330 | 2.0 | 4.0 | 0.00 | 0.02 | 0.17 | 84 | 1008.6 |
| 20260507022306 | 61 | 326 | 3.0 | 6.0 | 0.00 | 0.02 | 0.17 | 83 | 1008.6 |
| 20260507021927 | 61 | 326 | 0.0 | 4.0 | 0.00 | 0.02 | 0.17 | 84 | 1008.6 |
| 20260507021305 | 61 | 344 | 0.0 | 2.0 | 0.00 | 0.02 | 0.17 | 84 | 1008.9 |
| 20260507020306 | 61 | 337 | 0.0 | 4.0 | 0.00 | 0.02 | 0.17 | 84 | 1008.6 |
| 20260507015805 | 61 | 306 | 2.0 | 4.0 | 0.00 | 0.02 | 0.17 | 84 | 1008.6 |
| 20260507015306 | 61 | 327 | 1.0 | 3.0 | 0.00 | 0.02 | 0.17 | 85 | 1008.7 |
| 20260507014805 | 61 | 233 | 0.0 | 4.0 | 0.00 | 0.02 | 0.17 | 85 | 1008.8 |
| 20260507014309 | 61 | 327 | 0.0 | 4.0 | 0.00 | 0.02 | 0.17 | 85 | 1008.5 |
| 20260507014305 | 61 | 330 | 1.0 | 4.0 | 0.00 | 0.02 | 0.17 | 85 | 1008.8 |
| 20260507013312 | 62 | 357 | 0.0 | 4.0 | 0.00 | 0.02 | 0.17 | 84 | 1008.3 |
| 20260507013305 | 61 | 289 | 1.0 | 4.0 | 0.00 | 0.02 | 0.17 | 85 | 1008.3 |
| 20260507012805 | 61 | 354 | 1.0 | 4.0 | 0.00 | 0.02 | 0.17 | 85 | 1008.3 |
| 20260507011810 | 62 | 336 | 2.0 | 4.0 | 0.00 | 0.02 | 0.17 | 85 | 1008.5 |
| 20260507011805 | 62 | 333 | 0.0 | 3.0 | 0.00 | 0.02 | 0.17 | 84 | 1008.3 |
| 20260507010810 | 63 | 338 | 3.0 | 9.0 | 0.00 | 0.02 | 0.17 | 85 | 1008.7 |
| 20260507010805 | 62 | 334 | 3.0 | 5.0 | 0.00 | 0.02 | 0.17 | 85 | 1008.6 |
| 20260507010304 | 62 | 344 | 2.0 | 9.0 | 0.00 | 0.02 | 0.17 | 85 | 1008.7 |
| 20260507005305 | 63 | 326 | 1.0 | 7.0 | 0.00 | 0.02 | 0.17 | 85 | 1008.7 |
| 20260507004804 | 64 | 317 | 0.0 | 5.0 | 0.00 | 0.02 | 0.17 | 86 | 1008.7 |
| 20260507004303 | 64 | 244 | 1.0 | 5.0 | 0.00 | 0.02 | 0.17 | 85 | 1008.6 |
| 20260507003803 | 64 | 307 | 0.0 | 3.0 | 0.00 | 0.02 | 0.17 | 86 | 1008.4 |
| 20260507003302 | 64 | 309 | 0.0 | 3.0 | 0.00 | 0.02 | 0.17 | 86 | 1008.5 |
| 20260507002803 | 64 | 326 | 1.0 | 3.0 | 0.00 | 0.02 | 0.17 | 86 | 1008.6 |
| 20260507002307 | 65 | 344 | 0.0 | 4.0 | 0.01 | 0.02 | 0.17 | 86 | 1008.2 |
| 20260507002305 | 64 | 333 | 1.0 | 4.0 | 0.00 | 0.02 | 0.17 | 86 | 1008.4 |
| 20260507001308 | 65 | 320 | 0.0 | 4.0 | 0.02 | 0.02 | 0.17 | 87 | 1008.1 |
| 20260507001303 | 65 | 336 | 0.0 | 4.0 | 0.01 | 0.02 | 0.17 | 87 | 1008.0 |
| 20260507000923 | 65 | 338 | 1.0 | 3.0 | 0.02 | 0.02 | 0.17 | 88 | 1008.0 |
| 20260506235801 | 65 | 20 | 1.0 | 3.0 | 0.02 | 0.02 | 0.17 | 89 | 1007.9 |
| 20260506235306 | 65 | 327 | 0.0 | 0.0 | 0.02 | 0.02 | 0.17 | 90 | 1007.7 |
| 20260506234802 | 66 | 337 | 0.0 | 0.0 | 0.02 | 0.02 | 0.17 | 90 | 1007.8 |
| 20260506234302 | 66 | 336 | 0.0 | 1.0 | 0.02 | 0.02 | 0.17 | 90 | 1007.6 |
| 20260506233805 | 66 | 334 | 0.0 | 2.0 | 0.02 | 0.02 | 0.17 | 89 | 1007.3 |
| 20260506233801 | 66 | 336 | 0.0 | 1.0 | 0.02 | 0.02 | 0.17 | 89 | 1007.5 |
| 20260506232808 | 68 | 145 | 0.0 | 1.0 | 0.01 | 0.01 | 0.17 | 87 | 1007.2 |
| 20260506232803 | 67 | 245 | 0.0 | 2.0 | 0.02 | 0.02 | 0.17 | 88 | 1007.1 |
| 20260506232301 | 67 | 302 | 0.0 | 2.0 | 0.02 | 0.02 | 0.17 | 88 | 1006.8 |
| 20260506231303 | 69 | 154 | 0.0 | 0.0 | 0.01 | 0.01 | 0.17 | 87 | 1006.9 |
| 20260506230801 | 69 | 154 | 0.0 | 0.0 | 0.00 | 0.00 | 0.16 | 84 | 1006.8 |
| 20260506230301 | 69 | 154 | 0.0 | 0.0 | 0.00 | 0.00 | 0.16 | 83 | 1006.5 |
| 20260506225801 | 70 | 154 | 0.0 | 0.0 | 0.00 | 0.00 | 0.16 | 82 | 1006.6 |
| 20260506225300 | 70 | 154 | 0.0 | 0.0 | 0.00 | 0.00 | 0.16 | 82 | 1006.6 |
| 20260506224801 | 70 | 141 | 0.0 | 0.0 | 0.00 | 0.00 | 0.16 | 81 | 1006.7 |
| 20260506224301 | 71 | 141 | 0.0 | 0.0 | 0.00 | 0.00 | 0.16 | 81 | 1006.6 |
| 20260506223800 | 71 | 141 | 0.0 | 0.0 | 0.00 | 0.00 | 0.16 | 81 | 1006.6 |
| 20260506223300 | 0 | 0.0 | 0.0 | 0.00 | 0.00 | 0.16 | 1006.5 | ||
| 20260506222110 | 71 | 134 | 0.0 | 2.0 | 0.00 | 0.16 | 0.16 | 79 | 1006.6 |
| 20260506221610 | 71 | 159 | 0.0 | 2.0 | 0.00 | 0.16 | 0.16 | 79 | 1006.5 |
| 20260506221111 | 71 | 164 | 0.0 | 2.0 | 0.00 | 0.16 | 0.16 | 81 | 1006.6 |
| 20260506220609 | 71 | 151 | 0.0 | 1.0 | 0.00 | 0.16 | 0.16 | 82 | 1006.4 |
| 20260506220113 | 70 | 145 | 0.0 | 0.0 | 0.00 | 0.16 | 0.16 | 84 | 1006.6 |
| 20260506220108 | 70 | 140 | 0.0 | 1.0 | 0.00 | 0.16 | 0.16 | 83 | 1006.3 |
| 20260506215112 | 69 | 188 | 0.0 | 2.0 | 0.00 | 0.16 | 0.16 | 83 | 1006.5 |
| 20260506215108 | 69 | 138 | 0.0 | 2.0 | 0.00 | 0.16 | 0.16 | 83 | 1006.5 |
| 20260506214109 | 69 | 172 | 0.0 | 0.0 | 0.00 | 0.16 | 0.16 | 82 | 1006.6 |
| 20260506213612 | 70 | 128 | 0.0 | 2.0 | 0.00 | 0.16 | 0.16 | 81 | 1006.5 |
| 20260506213608 | 70 | 128 | 0.0 | 0.0 | 0.00 | 0.16 | 0.16 | 82 | 1006.6 |
| 20260506212609 | 70 | 216 | 0.0 | 2.0 | 0.00 | 0.16 | 0.16 | 81 | 1006.5 |
| 20260506212108 | 70 | 123 | 0.0 | 1.0 | 0.00 | 0.16 | 0.16 | 82 | 1006.3 |
| 20260506211608 | 70 | 148 | 0.0 | 0.0 | 0.00 | 0.16 | 0.16 | 82 | 1006.2 |
| 20260506211108 | 69 | 148 | 0.0 | 1.0 | 0.00 | 0.16 | 0.16 | 83 | 1006.2 |
| 20260506210610 | 69 | 188 | 0.0 | 1.0 | 0.00 | 0.16 | 0.16 | 83 | 1006.0 |
| 20260506210109 | 69 | 135 | 0.0 | 2.0 | 0.00 | 0.16 | 0.16 | 83 | 1006.0 |
| 20260506205613 | 69 | 138 | 0.0 | 1.0 | 0.00 | 0.16 | 0.16 | 83 | 1006.1 |
| 20260506205608 | 69 | 148 | 0.0 | 2.0 | 0.00 | 0.16 | 0.16 | 82 | 1006.1 |
| 20260506204609 | 69 | 159 | 0.0 | 2.0 | 0.00 | 0.16 | 0.16 | 82 | 1006.0 |
| 20260506204108 | 69 | 162 | 0.0 | 3.0 | 0.00 | 0.16 | 0.16 | 82 | 1005.9 |
| 20260506203607 | 69 | 196 | 0.0 | 3.0 | 0.00 | 0.16 | 0.16 | 82 | 1005.9 |
| 20260506203108 | 69 | 151 | 0.0 | 3.0 | 0.00 | 0.16 | 0.16 | 83 | 1006.0 |
| 20260506202609 | 69 | 148 | 0.0 | 3.0 | 0.00 | 0.16 | 0.16 | 82 | 1005.7 |
| 20260506202108 | 69 | 128 | 0.0 | 4.0 | 0.00 | 0.16 | 0.16 | 82 | 1006.0 |
| 20260506201608 | 69 | 134 | 0.0 | 5.0 | 0.00 | 0.16 | 0.16 | 83 | 1006.0 |
| 20260506201108 | 69 | 157 | 2.0 | 5.0 | 0.00 | 0.16 | 0.16 | 82 | 1005.9 |
| 20260506200606 | 69 | 151 | 1.0 | 4.0 | 0.00 | 0.16 | 0.16 | 82 | 1005.9 |
| 20260506200109 | 69 | 138 | 1.0 | 6.0 | 0.00 | 0.16 | 0.16 | 82 | 1006.0 |
| 20260506195607 | 69 | 144 | 2.0 | 6.0 | 0.00 | 0.16 | 0.16 | 81 | 1006.1 |
| 20260506195106 | 69 | 151 | 1.0 | 4.0 | 0.00 | 0.16 | 0.16 | 82 | 1006.0 |
| 20260506194607 | 69 | 182 | 2.0 | 4.0 | 0.00 | 0.16 | 0.16 | 81 | 1006.1 |
| 20260506194106 | 70 | 138 | 0.0 | 6.0 | 0.00 | 0.16 | 0.16 | 81 | 1006.1 |
| 20260506193607 | 69 | 151 | 2.0 | 6.0 | 0.00 | 0.16 | 0.16 | 81 | 1006.1 |
| 20260506193110 | 70 | 192 | 2.0 | 6.0 | 0.00 | 0.16 | 0.16 | 80 | 1006.2 |
| 20260506193106 | 70 | 165 | 3.0 | 6.0 | 0.00 | 0.16 | 0.16 | 80 | 1006.0 |
| 20260506192720 | 70 | 173 | 4.0 | 6.0 | 0.00 | 0.16 | 0.16 | 79 | 1006.2 |
| 20260506191605 | 71 | 189 | 3.0 | 6.0 | 0.00 | 0.16 | 0.16 | 79 | 1006.2 |
| 20260506191105 | 71 | 133 | 3.0 | 6.0 | 0.00 | 0.16 | 0.16 | 80 | 1006.2 |
| 20260506190606 | 71 | 144 | 3.0 | 6.0 | 0.00 | 0.16 | 0.16 | 80 | 1006.2 |
| 20260506190105 | 70 | 128 | 0.0 | 6.0 | 0.00 | 0.16 | 0.16 | 82 | 1006.2 |
| 20260506185606 | 70 | 120 | 4.0 | 6.0 | 0.00 | 0.16 | 0.16 | 81 | 1006.2 |
| 20260506185106 | 69 | 230 | 3.0 | 6.0 | 0.00 | 0.16 | 0.16 | 82 | 1006.2 |
| 20260506184606 | 69 | 166 | 2.0 | 6.0 | 0.00 | 0.16 | 0.16 | 82 | 1006.2 |
| 20260506184105 | 69 | 125 | 2.0 | 6.0 | 0.00 | 0.16 | 0.16 | 84 | 1006.2 |
| 20260506183605 | 68 | 137 | 2.0 | 6.0 | 0.00 | 0.16 | 0.16 | 83 | 1006.5 |
| 20260506183104 | 68 | 161 | 3.0 | 6.0 | 0.00 | 0.16 | 0.16 | 84 | 1006.5 |
| 20260506182604 | 68 | 241 | 3.0 | 7.0 | 0.00 | 0.16 | 0.16 | 83 | 1006.6 |
| 20260506182105 | 68 | 151 | 3.0 | 11.0 | 0.00 | 0.16 | 0.16 | 83 | 1006.5 |
| 20260506181605 | 68 | 180 | 4.0 | 11.0 | 0.00 | 0.16 | 0.16 | 83 | 1006.5 |
| 20260506181104 | 68 | 145 | 3.0 | 6.0 | 0.00 | 0.16 | 0.16 | 84 | 1006.4 |
| 20260506180605 | 67 | 92 | 3.0 | 6.0 | 0.00 | 0.16 | 0.16 | 84 | 1006.5 |
| 20260506180105 | 67 | 114 | 3.0 | 7.0 | 0.00 | 0.16 | 0.16 | 84 | 1006.6 |
| 20260506175604 | 67 | 158 | 4.0 | 7.0 | 0.00 | 0.16 | 0.16 | 84 | 1006.6 |
| 20260506175104 | 68 | 180 | 2.0 | 11.0 | 0.00 | 0.16 | 0.16 | 83 | 1006.6 |
| 20260506174604 | 68 | 133 | 3.0 | 11.0 | 0.00 | 0.16 | 0.16 | 83 | 1006.8 |
| 20260506174103 | 68 | 123 | 2.0 | 9.0 | 0.00 | 0.16 | 0.16 | 84 | 1006.7 |
| 20260506173604 | 68 | 131 | 4.0 | 10.0 | 0.00 | 0.16 | 0.16 | 84 | 1006.8 |
| 20260506173103 | 68 | 161 | 5.0 | 10.0 | 0.00 | 0.16 | 0.16 | 84 | 1006.8 |
| 20260506172603 | 68 | 144 | 4.0 | 11.0 | 0.00 | 0.16 | 0.16 | 84 | 1006.7 |
| 20260506172104 | 68 | 168 | 5.0 | 11.0 | 0.00 | 0.16 | 0.16 | 83 | 1006.7 |
| 20260506171603 | 68 | 161 | 4.0 | 11.0 | 0.00 | 0.16 | 0.16 | 84 | 1006.7 |
| 20260506171102 | 68 | 120 | 5.0 | 10.0 | 0.00 | 0.16 | 0.16 | 85 | 1006.6 |
| 20260506170605 | 67 | 151 | 2.0 | 6.0 | 0.00 | 0.16 | 0.16 | 87 | 1006.6 |
| 20260506165602 | 66 | 185 | 3.0 | 10.0 | 0.00 | 0.16 | 0.16 | 87 | 1006.7 |
| 20260506165103 | 66 | 127 | 4.0 | 10.0 | 0.00 | 0.16 | 0.16 | 87 | 1006.8 |
| 20260506164603 | 66 | 202 | 4.0 | 9.0 | 0.00 | 0.16 | 0.16 | 87 | 1006.9 |
| 20260506164102 | 65 | 142 | 4.0 | 9.0 | 0.00 | 0.16 | 0.16 | 89 | 1006.8 |
| 20260506163603 | 65 | 175 | 4.0 | 9.0 | 0.00 | 0.16 | 0.16 | 89 | 1006.7 |
| 20260506163101 | 65 | 155 | 4.0 | 10.0 | 0.00 | 0.16 | 0.16 | 89 | 1006.8 |
| 20260506162603 | 64 | 128 | 5.0 | 10.0 | 0.00 | 0.16 | 0.16 | 90 | 1006.9 |
| 20260506162101 | 64 | 157 | 4.0 | 9.0 | 0.00 | 0.16 | 0.16 | 90 | 1006.9 |
| 20260506161602 | 64 | 154 | 5.0 | 10.0 | 0.00 | 0.16 | 0.16 | 90 | 1007.0 |
| 20260506161103 | 64 | 104 | 4.0 | 10.0 | 0.00 | 0.16 | 0.16 | 90 | 1007.0 |
| 20260506160605 | 63 | 128 | 3.0 | 10.0 | 0.00 | 0.16 | 0.16 | 91 | 1006.9 |
| 20260506160601 | 63 | 137 | 3.0 | 10.0 | 0.00 | 0.16 | 0.16 | 91 | 1006.9 |
| 20260506155601 | 63 | 128 | 2.0 | 9.0 | 0.00 | 0.16 | 0.16 | 91 | 1007.0 |
| 20260506155108 | 63 | 134 | 5.0 | 10.0 | 0.00 | 0.16 | 0.16 | 91 | 1007.1 |
| 20260506155102 | 63 | 172 | 4.0 | 10.0 | 0.00 | 0.16 | 0.16 | 91 | 1007.0 |
| 20260506154104 | 62 | 134 | 3.0 | 9.0 | 0.01 | 0.16 | 0.16 | 91 | 1007.1 |
| 20260506154100 | 63 | 154 | 3.0 | 10.0 | 0.01 | 0.16 | 0.16 | 91 | 1007.1 |
| 20260506153724 | 62 | 140 | 4.0 | 9.0 | 0.01 | 0.16 | 0.16 | 92 | 1006.9 |
| 20260506153101 | 62 | 165 | 4.0 | 9.0 | 0.01 | 0.16 | 0.16 | 92 | 1007.0 |
| 20260506152719 | 62 | 162 | 4.0 | 11.0 | 0.02 | 0.16 | 0.16 | 92 | 1006.9 |
| 20260506151601 | 61 | 157 | 5.0 | 11.0 | 0.02 | 0.16 | 0.16 | 92 | 1006.9 |